ORBCOMM-X 1 21576U 91050C 26035.12379367 .00000359 00000+0 11885-3 0 9992 2 21576 98.3139 101.6683 0003398 186.0997 174.0153 14.43489963815572 ORBCOMM FM01 1 23545U 95017A 26035.19799201 .00009654 00000+0 90982-3 0 9999 2 23545 69.9601 213.9975 0005915 297.3223 62.7331 14.94043989647118 ORBCOMM FM02 1 23546U 95017B 26034.94320542 .00010982 00000+0 98490-3 0 9998 2 23546 69.9606 232.9105 0007080 301.9543 58.0925 14.95943729646750 ORBCOMM FM08 1 25112U 97084A 26035.20722523 .00002193 00000+0 63848-3 0 9994 2 25112 45.0146 333.2455 0007677 342.6173 17.4415 14.46849571474962 ORBCOMM FM10 1 25113U 97084B 26035.15681365 .00001942 00000+0 57309-3 0 9993 2 25113 45.0158 336.3120 0006228 313.8075 46.2261 14.46579758650097 ORBCOMM FM11 1 25114U 97084C 26035.20230260 .00001910 00000+0 56727-3 0 9992 2 25114 45.0144 337.1567 0007087 314.5431 45.4841 14.46318214475059 ORBCOMM FM12 1 25115U 97084D 26035.16141597 .00001896 00000+0 56319-3 0 9992 2 25115 45.0151 337.0783 0006143 312.7184 47.3150 14.46345479474847 ORBCOMM FM09 1 25116U 97084E 26035.21667878 .00002024 00000+0 60049-3 0 9993 2 25116 45.0156 338.0104 0007263 302.6127 57.4024 14.46175440475055 ORBCOMM FM05 1 25117U 97084F 26035.22414608 .00002109 00000+0 61416-3 0 9999 2 25117 45.0153 333.1559 0003744 317.2721 42.7839 14.46960010474207 ORBCOMM FM06 1 25118U 97084G 26035.21931564 .00002298 00000+0 66320-3 0 9992 2 25118 45.0147 332.6311 0002636 321.0039 182.2607 14.47133890475129 ORBCOMM FM07 1 25119U 97084H 26035.20375379 .00002127 00000+0 61687-3 0 9990 2 25119 45.0141 333.4487 0004511 313.7583 46.2896 14.47138953475116 ORBCOMM FM03 1 25158U 98007B 26035.28955931 .00001404 00000+0 53021-3 0 9995 2 25158 107.9664 252.6156 0045137 204.9579 154.9378 14.35223441457337 ORBCOMM FM04 1 25159U 98007C 26035.30400061 .00001253 00000+0 47699-3 0 9994 2 25159 107.9651 256.0240 0040846 202.4245 157.5110 14.35453610457528 ORBCOMM FM17 1 25413U 98046A 26034.89425445 .00000787 00000+0 31881-3 0 9993 2 25413 44.9930 243.6072 0002261 304.9473 55.1162 14.35672199436461 ORBCOMM FM18 1 25414U 98046B 26035.03721487 .00001599 00000+0 55521-3 0 9995 2 25414 44.9912 153.9692 0003003 0.5225 359.5627 14.39345439437648 ORBCOMM FM19 1 25415U 98046C 26035.29513633 .00001779 00000+0 61481-3 0 9998 2 25415 44.9926 155.0950 0001922 344.9987 33.9464 14.39168608437634 ORBCOMM FM20 1 25416U 98046D 26035.03626337 .00001161 00000+0 42843-3 0 9993 2 25416 44.9931 162.8167 0000615 193.8725 166.2106 14.37812878437621 ORBCOMM FM16 1 25417U 98046E 26035.29733621 .00001890 00000+0 64294-3 0 9990 2 25417 44.9921 149.9275 0002649 26.7653 333.3333 14.39731406437695 ORBCOMM FM15 1 25418U 98046F 26035.05491000 .00001452 00000+0 50835-3 0 9997 2 25418 44.9952 156.9380 0002432 29.7377 330.3609 14.39352210437641 ORBCOMM FM14 1 25419U 98046G 26035.28689487 .00001544 00000+0 53280-3 0 9990 2 25419 44.9945 153.3481 0001199 14.5525 345.5358 14.39783868437650 ORBCOMM FM13 1 25420U 98046H 26034.71179791 .00001364 00000+0 48974-3 0 9995 2 25420 44.9960 166.4493 0003663 356.5989 3.4834 14.38356840436561 ORBCOMM FM21 1 25475U 98053A 26034.98608098 .00000873 00000+0 33308-3 0 9998 2 25475 45.0072 251.3114 0001409 334.9104 25.1676 14.37936391430604 ORBCOMM FM22 1 25476U 98053B 26034.98158643 .00001122 00000+0 40471-3 0 9992 2 25476 45.0061 244.1760 0002846 320.4879 39.5762 14.39146014430652 ORBCOMM FM23 1 25477U 98053C 26035.29939832 .00001017 00000+0 37825-3 0 9997 2 25477 45.0071 251.5644 0002253 320.3944 39.6740 14.38193054430800 ORBCOMM FM24 1 25478U 98053D 26035.27979929 .00001128 00000+0 40940-3 0 9992 2 25478 45.0066 248.0625 0002040 330.7555 29.3179 14.38827958430867 ORBCOMM FM25 1 25479U 98053E 26034.97826770 .00001002 00000+0 36880-3 0 9993 2 25479 45.0060 247.8015 0004369 335.4053 24.6587 14.38795765431113 ORBCOMM FM26 1 25480U 98053F 26035.28860947 .00000865 00000+0 33161-3 0 9999 2 25480 45.0056 244.5477 0006268 351.2381 8.8357 14.37740823431041 ORBCOMM FM27 1 25481U 98053G 26035.30770473 .00001152 00000+0 41685-3 0 9997 2 25481 45.0042 246.3489 0000810 13.0857 347.0012 14.38836522431092 ORBCOMM FM28 1 25482U 98053H 26034.83480710 .00001265 00000+0 45237-3 0 9999 2 25482 45.0037 185.8221 0003483 29.8431 330.2615 14.38942202431715 ORBCOMM FM30 1 25980U 99065A 26035.11323354 .00000997 00000+0 37410-3 0 9993 2 25980 45.0316 71.4484 0004221 97.1661 262.9668 14.37904055367825 ORBCOMM FM31 1 25981U 99065B 26035.02811324 .00001052 00000+0 39265-3 0 9996 2 25981 45.0230 65.2971 0002362 148.8954 211.2035 14.37826962367360 ORBCOMM FM32 1 25982U 99065C 26035.08829547 .00000987 00000+0 37812-3 0 9991 2 25982 45.0157 83.1372 0004559 129.3055 230.8198 14.36891491367948 ORBCOMM FM33 1 25983U 99065D 26035.24871702 .00001313 00000+0 45153-3 0 9991 2 25983 45.0298 335.1102 0006635 153.4029 206.7162 14.40708213369525 ORBCOMM FM36 1 25984U 99065E 26035.16423939 .00001390 00000+0 49304-3 0 9995 2 25984 45.0391 70.9439 0002461 338.3062 21.7683 14.38883781367826 ORBCOMM FM35 1 25985U 99065F 26035.10746692 .00001119 00000+0 41507-3 0 9990 2 25985 45.0394 78.1505 0002454 152.9290 207.1687 14.37786828368153 ORBCOMM FM34 1 25986U 99065G 26034.45097429 .00000922 00000+0 35092-3 0 9998 2 25986 45.0389 81.7508 0001727 50.8738 309.2264 14.37707825368173 ORBCOMM FM38 1 33060U 08031A 26035.09624975 .00002257 00000+0 30422-3 0 9991 2 33060 48.4392 289.0933 0004827 318.5412 41.5138 14.82571905949144 ORBCOMM FM41 1 33061U 08031B 26035.19857146 .00002125 00000+0 29105-3 0 9991 2 33061 48.4432 297.2156 0004153 303.1902 223.0984 14.82111611948637 ORBCOMM FM29 1 33062U 08031C 26035.16037993 .00002409 00000+0 32504-3 0 9991 2 33062 48.4388 304.8808 0005789 303.4089 209.6648 14.82278609948540 ORBCOMM FM39 1 33063U 08031D 26035.19735359 .00002336 00000+0 32799-3 0 9991 2 33063 48.4409 331.6372 0006849 274.8629 85.1504 14.80680184948167 ORBCOMM FM37 1 33064U 08031E 26035.07054575 .00002111 00000+0 29776-3 0 9995 2 33064 48.4401 320.4026 0005414 293.0787 80.2671 14.80872785948405 ORBCOMM FM40 1 33065U 08031F 26035.10194947 .00002733 00000+0 35514-3 0 9995 2 33065 48.4412 300.1558 0006206 309.4856 188.3459 14.83470129948573 VESSELSAT 1 1 37840U 11058C 26034.64076360 .00000388 00000+0 66607-4 0 9991 2 37840 19.9610 133.2951 0013500 212.4683 147.4890 14.11412498739040 ORBCOMM FM109 1 40086U 14040A 26035.22517961 .00000979 00000+0 24428-3 0 9993 2 40086 47.0048 0.0410 0002369 315.2487 44.8207 14.58665487614930 ORBCOMM FM107 1 40087U 14040B 26035.17316590 .00000982 00000+0 24450-3 0 9992 2 40087 47.0066 1.1530 0001858 274.3389 85.7285 14.58742611615008 ORBCOMM FM106 1 40088U 14040C 26034.76313240 .00001370 00000+0 25591-3 0 9995 2 40088 47.0591 166.4379 0015618 62.9700 297.2784 14.70210647617543 ORBCOMM FM111 1 40089U 14040D 26035.07014885 .00003658 00000+0 41335-3 0 9999 2 40089 47.0018 342.9655 0028891 225.3104 134.5439 14.88126208624744 ORBCOMM FM104 1 40090U 14040E 26035.07536285 .00000675 00000+0 18563-3 0 9997 2 40090 47.0058 38.0356 0016140 188.4829 171.5785 14.57111403614435 ORBCOMM FM103 1 40091U 14040F 26035.29572714 .00000939 00000+0 23594-3 0 9992 2 40091 47.0068 1.2699 0002474 272.4066 87.6537 14.58650492597980 ORBCOMM FM114 1 41179U 15081A 26034.62673649 .00000667 00000+0 17804-3 0 9996 2 41179 47.0046 273.3797 0002688 304.1175 55.9455 14.58669720538252 ORBCOMM FM119 1 41180U 15081B 26035.10420913 .00000788 00000+0 20394-3 0 9998 2 41180 46.9991 180.4796 0000608 350.2209 9.8664 14.58612517539576 ORBCOMM FM105 1 41181U 15081C 26034.87215195 .00000277 00000+0 12229-3 0 9997 2 41181 46.9997 209.2109 0002139 273.4264 86.6372 14.45462378534263 ORBCOMM FM110 1 41182U 15081D 26035.09534464 .00000814 00000+0 20931-3 0 9992 2 41182 47.0016 270.6447 0002704 189.9421 170.1411 14.58660286538190 ORBCOMM FM118 1 41183U 15081E 26034.99289075 .00000786 00000+0 20326-3 0 9992 2 41183 47.0035 271.4366 0002557 145.4358 214.6695 14.58663152538286 ORBCOMM FM112 1 41184U 15081F 26034.44794041 .00001069 00000+0 26347-3 0 9991 2 41184 46.9978 182.5269 0002105 293.3430 66.7234 14.58656553539427 ORBCOMM FM113 1 41185U 15081G 26034.83617928 .00001136 00000+0 27756-3 0 9993 2 41185 46.9992 181.0552 0001735 298.7145 61.3566 14.58661541539469 ORBCOMM FM115 1 41186U 15081H 26035.21766553 .00001048 00000+0 23621-3 0 9995 2 41186 46.9998 15.5842 0000813 344.7071 15.3792 14.63049648541743 ORBCOMM FM108 1 41187U 15081J 26035.20987863 .00001229 00000+0 29737-3 0 9999 2 41187 47.0048 90.8166 0003445 292.2008 67.8512 14.58665926540667 ORBCOMM FM117 1 41188U 15081K 26035.10677390 .00001080 00000+0 26591-3 0 9990 2 41188 47.0011 89.9806 0003710 299.1098 60.9416 14.58658699540697 ORBCOMM FM116 1 41189U 15081L 26034.81344017 .00000679 00000+0 18059-3 0 9998 2 41189 47.0010 181.1468 0001902 185.7653 174.3211 14.58640347539461